Location: Noulens
(43.8099°N, 0.1664°E)
Time: 03:47:32
(UTC+00:00)

SL-16 R/B - Pass Details

Date: 07 June 2020
Orbit: 842 x 846 km, 71.0° (Epoch: 10 July)

Event Time Altitude Azimuth Distance (km) Brightness Sun altitude
Exits shadow 00:23:01 12° 115° (ESE) 2,304 4.3 -23.2°
Maximum altitude 00:24:38 14° 97° (E) 2,212 4.4 -23.1°
Drops below altitude 10° 00:27:19 10° 68° (ENE) 2,469 5.0 -23.1°
Sets 00:31:02 0° 44° (NE) 3,411 6.2 -23.0°
